Weather History for Tucson, AZ

Change the Weather History Date:

Friday, January 18, 2013

  Actual Average Record
Temperature  
Mean Temperature 58 °F 53 °F  
Max Temperature 75 °F 66 °F 84 °F (2000)
Min Temperature 40 °F 40 °F 21 °F (1925)
Degree Days  
Heating Degree Days 7 12  
Month to date heating degree days 355 230  
Since 1 July heating degree days 776 841  
Cooling Degree Days 0 0  
Month to date cooling degree days 0 0  
Year to date cooling degree days 0 0  
Growing Degree Days 7 (Base 50)    
Moisture  
Dew Point 15 °F    
Average Humidity 21    
Maximum Humidity 34    
Minimum Humidity 7    
Precipitation  
Precipitation 0.00 in 0.03 in 1.32 in (1993)
Month to date precipitation 0.03 0.54  
Year to date precipitation 0.03 0.54  
Snow  
Snow 0.00 in - - ()
Month to date snowfall 0.0  
Snow Depth 0.00 in    
Sea Level Pressure  
Sea Level Pressure 30.13 in    
Wind  
Wind Speed 6 mph (SE)    
Max Wind Speed 17 mph    
Max Gust Speed 21 mph    
Visibility 10 miles    
Events      
T = Trace of Precipitation, MM = Missing Value Source: NWS Daily Summary

Daily Weather History Graph

Daily Weather History Graph

Search for Another Location

Airport:

Trip Planner

Search our weather history database for the weather conditions in past years. The results will help you decide how hot, cold, wet, or windy it might be!

Date:

Astronomy

Jan. 18, 2013 Rise Set
Actual Time 7:24 AM MST 5:44 PM MST
Civil Twilight 6:57 AM MST 6:11 PM MST
Nautical Twilight 6:27 AM MST 6:41 PM MST
Astronomical Twilight 5:58 AM MST 7:10 PM MST
Moon 11:33 AM MST (1/18) 12:10 AM MST (1/18)
Length of Visible Light 11h 13m
Length of Day
10h 20m
Waxing Crescent, 48% of the Moon is Illuminated
Jan 18
Waxing Crescent
Jan 18
First Quarter
Jan 26
Full
Feb 3
Last Quarter
Feb 10
New

Hourly Weather History & Observations

Time (MST) Temp. Windchill Dew Point Humidity Pressure Visibility Wind Dir Wind Speed Gust Speed Precip Events Conditions
12:53 AM 52.0 °F - 15.1 °F 23% 30.15 in 10.0 mi East 10.4 mph - N/A   Clear
1:53 AM 51.1 °F - 15.1 °F 24% 30.15 in 10.0 mi ESE 9.2 mph - N/A   Clear
2:53 AM 50.0 °F - 15.1 °F 25% 30.14 in 10.0 mi ESE 9.2 mph - N/A   Clear
3:53 AM 43.0 °F 39.5 °F 16.0 °F 34% 30.15 in 10.0 mi SE 5.8 mph - N/A   Clear
4:53 AM 43.0 °F 41.3 °F 15.1 °F 32% 30.14 in 10.0 mi SE 3.5 mph - N/A   Clear
5:53 AM 42.1 °F 36.6 °F 16.0 °F 35% 30.16 in 10.0 mi SE 9.2 mph - N/A   Clear
6:53 AM 42.1 °F 39.2 °F 15.1 °F 34% 30.17 in 10.0 mi ESE 4.6 mph - N/A   Clear
7:53 AM 46.0 °F 43.9 °F 15.1 °F 29% 30.17 in 10.0 mi ESE 4.6 mph - N/A   Clear
8:53 AM 48.9 °F - 17.1 °F 28% 30.19 in 10.0 mi SSE 5.8 mph - N/A   Clear
9:53 AM 55.9 °F - 16.0 °F 21% 30.20 in 10.0 mi SSE 11.5 mph - N/A   Clear
10:53 AM 62.1 °F - 16.0 °F 17% 30.18 in 10.0 mi ESE 12.7 mph - N/A   Clear
11:53 AM 66.9 °F - 15.1 °F 14% 30.14 in 10.0 mi ESE 12.7 mph - N/A   Clear
12:53 PM 69.1 °F - 15.1 °F 13% 30.09 in 10.0 mi SE 10.4 mph - N/A   Clear
1:53 PM 72.0 °F - 12.9 °F 10% 30.06 in 10.0 mi SE 6.9 mph - N/A   Clear
2:53 PM 73.9 °F - 8.1 °F 8% 30.05 in 10.0 mi Calm Calm - N/A   Clear
3:53 PM 73.9 °F - 6.1 °F 7% 30.04 in 10.0 mi Calm Calm - N/A   Clear
4:53 PM 73.0 °F - 5.0 °F 7% 30.05 in 10.0 mi Calm Calm - N/A   Clear
5:53 PM 66.0 °F - 14.0 °F 13% 30.08 in 10.0 mi NW 5.8 mph - N/A   Clear
6:53 PM 60.1 °F - 18.0 °F 20% 30.11 in 10.0 mi Calm Calm - N/A   Clear
7:53 PM 55.9 °F - 21.0 °F 26% 30.12 in 10.0 mi WSW 3.5 mph - N/A   Clear
8:53 PM 50.0 °F - 21.0 °F 32% 30.13 in 10.0 mi SSE 6.9 mph - N/A   Clear
9:53 PM 51.1 °F - 19.9 °F 29% 30.12 in 10.0 mi SE 8.1 mph - N/A   Clear
10:53 PM 46.0 °F 43.1 °F 19.0 °F 34% 30.12 in 10.0 mi SSE 5.8 mph - N/A   Clear
11:53 PM 44.1 °F 40.1 °F 18.0 °F 35% 30.12 in 10.0 mi SSE 6.9 mph - N/A   Clear